Simultaneous Nadir Overpasses (SNOs) Predictions

Prediction of SNOs between GOES-16 and AQUA Satellite Orbit:

Table of predicted SNOs for the next 14.0 days since TLE Epoch: 6/7/2019
Index Date Time (GOES-16) GOES-16 Lat,Lon AQUA Lat,Lon Distance(km) Time Diff (sec)
1 06/09/2019 18:23:13 0.00, -75.20 0.73, -71.66 401.68 80
2 06/10/2019 06:44:28 -0.01, -75.21 0.35, -76.82 183.94 80
3 06/12/2019 06:29:36 -0.01, -75.22 -0.28, -73.86 153.81 80
4 06/12/2019 18:51:00 0.01, -75.22 -0.81, -79.06 436.55 80
5 06/14/2019 06:17:25 -0.01, -75.24 -0.96, -70.92 492.09 80
6 06/14/2019 18:38:48 0.01, -75.24 -0.18, -76.10 98.11 80
7 06/16/2019 18:29:17 0.02, -75.27 0.45, -73.15 240.80 80
8 06/17/2019 06:50:31 -0.02, -75.28 0.64, -78.30 344.31 80
9 06/19/2019 06:35:39 -0.03, -75.31 0.00, -75.35 5.34 80
10 06/21/2019 06:23:27 -0.03, -75.34 -0.63, -72.39 335.56 80
11 06/21/2019 18:44:52 0.03, -75.35 -0.43, -77.59 254.12 80




NCC Satellite Simultaneous Nadir Overpasses (SNOs) Prediction Service
